This demonstration page uses our WeatherBlox Daily Observations layout. Learn more.

Left ArrowRight Arrow

Hourly Observations for November 13, 2019

Temp ( °F °C ) Dew Point ( °F °C ) Humidity (%) Winds ( mph kmh ) Pressure ( in mb ) Visibility ( mi km ) Precip ( " mm )
12:53 am 00:53 Clear 25 -3.9 17 -8.3 72 72 N 5 7 30.29 1026 10 16 0.00 0.00
1:53 am 01:53 Clear 24 -4.4 17 -8.3 75 75 VRB 3 6 30.29 1026 10 16 0.00 0.00
2:53 am 02:53 Clear 23 -5 17 -8.3 78 78 N 5 7 30.30 1026 10 16 0.00 0.00
3:53 am 03:53 Clear 23 -5 17 -8.3 78 78 N 3 6 30.30 1026 10 16 0.00 0.00
4:53 am 04:53 Clear 22 -5.6 18 -7.8 85 85 Calm 30.31 1026 10 16 0.00 0.00
5:53 am 05:53 Clear 22 -5.6 18 -7.8 85 85 N 3 6 30.33 1027 10 16 0.00 0.00
6:53 am 06:53 Clear 22 -5.6 18 -7.8 85 85 Calm 30.35 1028 10 16 0.00 0.00
7:53 am 07:53 Sunny 23 -5 19 -7.2 85 85 Calm 30.37 1029 10 16 0.00 0.00
8:53 am 08:53 Sunny 30 -1.1 20 -6.7 66 66 NE 5 7 30.38 1029 10 16 0.00 0.00
9:53 am 09:53 Sunny 34 1.1 17 -8.3 50 50 E 10 17 30.39 1029 10 16 0.00 0.00
10:53 am 10:53 Sunny 37 2.8 15 -9.4 41 41 E 9 15 30.38 1029 10 16 0.00 0.00
11:53 am 11:53 Sunny 41 5 16 -8.9 36 36 undefined N/A 30.36 1028 10 16 0.00 0.00
12:53 pm 12:53 Sunny 43 6.1 14 -10 31 31 VRB 7 11 30.32 1027 10 16 0.00 0.00
1:53 pm 13:53 Sunny 46 7.8 12 -11.1 25 25 E 10 17 30.29 1026 10 16 0.00 0.00
2:53 pm 14:53 Sunny 47 8.3 13 -10.6 25 25 SE 9 15 30.27 1025 10 16 0.00 0.00
3:53 pm 15:53 Sunny 47 8.3 14 -10 26 26 undefined N/A 30.28 1026 10 16 0.00 0.00
4:53 pm 16:53 Sunny 47 8.3 15 -9.4 28 28 E 5 7 30.29 1026 10 16 0.00 0.00
5:53 pm 17:53 Clear 44 6.7 16 -8.9 32 32 ESE 5 7 30.30 1026 10 16 0.00 0.00
6:53 pm 18:53 Clear 41 5 18 -7.8 39 39 ESE 6 9 30.31 1027 10 16 0.00 0.00
7:53 pm 19:53 Clear 40 4.4 19 -7.2 43 43 E 6 9 30.32 1027 10 16 0.00 0.00
8:53 pm 20:53 Clear 39 3.9 19 -7.2 45 45 E 7 11 30.31 1027 10 16 0.00 0.00
9:53 pm 21:53 Clear 39 3.9 19 -7.2 45 45 E 9 15 30.31 1026 10 16 0.00 0.00
10:53 pm 22:53 Clear 38 3.3 19 -7.2 46 46 ESE 5 7 30.32 1027 10 16 0.00 0.00
11:53 pm 23:53 Clear 37 2.8 19 -7.2 48 48 E 6 9 30.33 1027 10 16 0.00 0.00

Powered by AerisWeather